[[{"header":{"parameterUnit":"m.s-1","parameterCategory":1,"la1":30.2991,"la2":30.254,"lo1":-89.0895,"lo2":-89.0444,"dy":0.0017,"dx":0.0017,"nx":28,"ny":28,"refTime":"2025-06-13T09:00:00:Z","depth":0,"parameterNumber":2,"parameterNumberName":"U-component_of_WINDS"},"data":[0,0,0,0,0,0,0,0,0,0,0,0,0,0,0,0,0,0,0,0,0,0,0,0,0,0,0,0,0,0,0,0,0,0,0,0,0,0,0,0,0,0,0,0,0,0,0,0,0,0,0,0,0,0,0,0,0,0,0.7167,0.7169,0,0.7303,0.7305,0.7307,0.7357,0.7356,0.7356,0.7356,0.7496,0.75,0.7504,0,0,0,0,0,0,0,0,0,0,0,0,0,0.6949,0.6953,0.7167,0.7169,0.717,0.7303,0.7305,0.7307,0.7357,0.7356,0.7356,0.7355,0.7494,0.7499,0.7504,0,0,0,0,0,0,0,0,0,0,0,0,0,0.706,0.6954,0.7167,0.7211,0.7217,0.7303,0.7305,0.7307,0.7357,0.7356,0.7356,0.7355,0.7493,0.7499,0.7505,0.7557,0,0,0.7524,0.7527,0,0,0,0,0,0,0,0,0.7054,0.7068,0.7203,0.7208,0.7215,0.7312,0.728,0.7391,0.7357,0.7304,0.7356,0.7355,0.7435,0.7446,0.7473,0.7563,0.7569,0.7524,0.7528,0.7531,0.7533,0,0,0,0,0,0,0,0.7046,0.7063,0.7221,0.7205,0.7212,0.7224,0.7239,0.7301,0.7372,0.7308,0.7312,0.7328,0.7438,0.7467,0.7477,0.7571,0.7524,0.753,0.7534,0.7536,0.7709,0.771,0,0,0,0,0,0,0.7031,0.7056,0.7217,0.7225,0.7131,0.7229,0.7246,0.7282,0.7371,0.7384,0.7328,0.733,0.7457,0.747,0.7482,0.7548,0.7531,0.7537,0.754,0.7708,0.771,0.771,0,0,0,0,0,0,0.7026,0.7045,0.7211,0.7142,0.7164,0.7233,0.7273,0.7285,0.7314,0.7386,0.7399,0.7345,0.7457,0.7473,0.7537,0.7554,0.7539,0.7545,0.7707,0.7709,0.771,0.7681,0,0,0,0,0,0,0.702,0.7043,0.7064,0.7142,0.7167,0.7265,0.7274,0.7288,0.7324,0.7327,0.7405,0.7417,0.7458,0.7528,0.7544,0.7562,0.755,0.7706,0.7708,0.771,0.7681,0.7681,0.7681,0,0,0,0,0,0.7012,0.705,0.7065,0.7084,0.7195,0.7265,0.728,0.7325,0.7325,0.7347,0.7393,0.7415,0.7549,0.7534,0.7552,0.7573,0.7706,0.7708,0.7709,0.7681,0.7681,0.7681,0,0,0,0,0,0,0.6973,0.7062,0.7078,0.7143,0.7196,0.7274,0.7302,0.7325,0.7379,0.738,0.7434,0.7451,0.751,0.7548,0.753,0.7627,0.7629,0.7634,0.76,0.7601,0.7602,0.7592,0.7555,0,0,0,0,0,0.6972,0.7022,0.7097,0.7147,0.7172,0.7232,0.7265,0.7295,0.7352,0.7375,0.7426,0.7481,0.7536,0.757,0.7625,0.7686,0.7703,0.7709,0.7709,0.7709,0.7713,0.7748,0.7751,0.7717,0.7717,0.7717,0,0,0.697,0.7025,0.7053,0.714,0.7185,0.7235,0.7251,0.7304,0.7342,0.7384,0.7447,0.7486,0.7551,0.7613,0.7643,0.7646,0.7726,0.7711,0.7711,0.7716,0.775,0.7753,0.7756,0.7718,0.7718,0.7718,0,0,0.6993,0.704,0.7086,0.713,0.7198,0.7237,0.7248,0.7322,0.7349,0.7414,0.7446,0.7491,0.7584,0.7628,0.7663,0.7701,0.7723,0.7717,0.7719,0.7751,0.7754,0.7757,0.777,0.7774,0.7721,0.7721,0.7721,0,0.6983,0.7061,0.7107,0.7158,0.7195,0.7234,0.7281,0.7322,0.7403,0.7428,0.743,0.7546,0.7592,0.7666,0.7674,0.7701,0.7715,0.7709,0.775,0.7753,0.7756,0.7769,0.7774,0.7719,0.772,0.772,0.772,0,0.7044,0.7097,0.7127,0.7204,0.7244,0.7293,0.7346,0.7381,0.7407,0.7446,0.751,0.7567,0.7633,0.7652,0.7679,0.7729,0.7728,0.7739,0.7742,0.7757,0.777,0.7776,0.7718,0.7718,0.7719,0.7719,0,0,0.7048,0.7149,0.7159,0.7194,0.7271,0.7312,0.7362,0.7426,0.7455,0.7509,0.7552,0.7629,0.7639,0.7678,0.7709,0.7738,0.7763,0.7745,0.7748,0.7747,0.7822,0.7813,0.7818,0.7778,0.7779,0.778,0.7816,0,0.7081,0.7173,0.7215,0.7288,0.7337,0.7373,0.7417,0.7468,0.7505,0.7552,0.7593,0.7646,0.7655,0.7679,0.7709,0.7754,0.7779,0.7752,0.7818,0.782,0.7802,0.7825,0.7817,0.7849,0.7822,0.7823,0.7823,0,0.7133,0.7186,0.7263,0.7332,0.7355,0.7393,0.7454,0.7498,0.7557,0.7582,0.7624,0.7654,0.7707,0.7706,0.7779,0.776,0.7789,0.7815,0.7817,0.7826,0.7823,0.7835,0.786,0.7864,0.7832,0.7831,0.7831,0,0.7128,0.7219,0.7277,0.7305,0.7388,0.7413,0.7449,0.7506,0.7542,0.7595,0.7618,0.7677,0.7709,0.7754,0.7799,0.7793,0.7868,0.787,0.789,0.7889,0.7905,0.7903,0.7935,0.7923,0.7923,0.7923,0.7923,0,0.716,0.7206,0.7275,0.7311,0.7362,0.741,0.746,0.7498,0.7549,0.7592,0.7627,0.7667,0.7723,0.777,0.7805,0.786,0.7875,0.7896,0.7905,0.7893,0.789,0.7914,0.7913,0.7924,0.7924,0.7923,0.7923,0,0.7164,0.7212,0.7277,0.7349,0.7368,0.7403,0.7465,0.75,0.7538,0.7592,0.7608,0.7668,0.7724,0.7773,0.7847,0.7871,0.7928,0.7939,0.7908,0.7913,0.793,0.7928,0.7979,0.7988,0.7969,0.7969,0.7969,0,0.7182,0.7218,0.7293,0.7324,0.7359,0.7409,0.7445,0.7493,0.7529,0.7597,0.7624,0.7683,0.7733,0.7821,0.7871,0.7928,0.794,0.7954,0.7949,0.7936,0.7941,0.7938,0.7942,0.7954,0.7954,0.7954,0.7954,0,0.7209,0.723,0.7281,0.7339,0.7381,0.7429,0.7479,0.7502,0.7559,0.7597,0.7655,0.7694,0.7769,0.7827,0.7889,0.7925,0.7949,0.7955,0.7963,0.7952,0.7932,0.7943,0.7909,0.7954,0.7954,0.7954,0.7954,0.7954,0.722,0.7253,0.7311,0.7366,0.7408,0.7453,0.7489,0.7531,0.7581,0.7646,0.7671,0.773,0.7786,0.7872,0.7908,0.7954,0.7958,0.7969,0.7972,0.7974,0.7972,0.7924,0.7966,0.7966,0.7966,0.7966,0.7966,0,0.7249,0.7287,0.7337,0.7405,0.7447,0.7465,0.752,0.7555,0.7606,0.7656,0.7704,0.777,0.7826,0.788,0.7938,0.7965,0.7977,0.7979,0.7977,0.7985,0.7965,0.7953,0.7968,0.7968,0.7968,0.7968,0.7968,0.7967,0.7269,0.7325,0.7354,0.7431,0.747,0.7527,0.7557,0.7598,0.7639,0.7711,0.7757,0.7792,0.7843,0.7905,0.7957,0.7971,0.7991,0.799,0.8007,0.7987,0.7987,0.7986,0.7975,0.7994,0.7994,0.8023,0.8023,0.8023]},{"header":{"parameterUnit":"m.s-1","parameterCategory":1,"la1":30.2991,"la2":30.254,"lo1":-89.0895,"lo2":-89.0444,"dy":0.0017,"dx":0.0017,"nx":28,"ny":28,"refTime":"2025-06-13T09:00:00:Z","depth":0,"parameterNumber":3,"parameterNumberName":"V-component_of_WINDS"},"data":[0,0,0,0,0,0,0,0,0,0,0,0,0,0,0,0,0,0,0,0,0,0,0,0,0,0,0,0,0,0,0,0,0,0,0,0,0,0,0,0,0,0,0,0,0,0,0,0,0,0,0,0,0,0,0,0,0,0,2.4334,2.4334,0,2.4379,2.4379,2.438,2.4378,2.4378,2.4377,2.4377,2.4421,2.4423,2.4425,0,0,0,0,0,0,0,0,0,0,0,0,0,2.4245,2.4246,2.4334,2.4334,2.4335,2.4378,2.4379,2.438,2.4378,2.4378,2.4377,2.4376,2.4421,2.4423,2.4425,0,0,0,0,0,0,0,0,0,0,0,0,0,2.4286,2.4247,2.4334,2.434,2.4341,2.4378,2.4379,2.438,2.4379,2.4378,2.4377,2.4376,2.442,2.4423,2.4425,2.446,0,0,2.4433,2.4434,0,0,0,0,0,0,0,0,2.4283,2.4289,2.4338,2.4339,2.434,2.4372,2.4364,2.4407,2.4379,2.4364,2.4377,2.4376,2.4406,2.4409,2.442,2.4462,2.4464,2.4433,2.4435,2.4436,2.4437,0,0,0,0,0,0,0,2.4281,2.4287,2.4351,2.4339,2.434,2.4339,2.4344,2.4372,2.4389,2.4365,2.4365,2.4371,2.4406,2.4417,2.4421,2.4464,2.4433,2.4436,2.4437,2.4438,2.4535,2.4536,0,0,0,0,0,0,2.4277,2.4285,2.435,2.4353,2.4309,2.4341,2.4347,2.4363,2.4389,2.4392,2.4371,2.4371,2.4413,2.4418,2.4422,2.4464,2.4436,2.4439,2.444,2.4534,2.4535,2.4536,0,0,0,0,0,0,2.4275,2.4283,2.4348,2.4319,2.4327,2.4344,2.4362,2.4364,2.4375,2.4394,2.4397,2.438,2.4413,2.4419,2.445,2.4465,2.444,2.4442,2.4533,2.4535,2.4536,2.4547,0,0,0,0,0,0,2.4272,2.4282,2.4296,2.4319,2.4329,2.4376,2.4363,2.4366,2.438,2.4379,2.4402,2.4405,2.4412,2.4446,2.4453,2.4468,2.4444,2.4532,2.4534,2.4535,2.4546,2.4549,2.4552,0,0,0,0,0,2.4269,2.4298,2.4297,2.4305,2.4347,2.4377,2.4382,2.439,2.4381,2.4395,2.4406,2.4405,2.4462,2.4449,2.4457,2.4474,2.4531,2.4533,2.4535,2.4544,2.4548,2.4552,0,0,0,0,0,0,2.4276,2.4301,2.43,2.4337,2.4355,2.4377,2.4395,2.4394,2.4415,2.4414,2.4422,2.4427,2.4458,2.4469,2.4454,2.4507,2.4495,2.4499,2.45,2.4504,2.4507,2.4504,2.4447,0,0,0,0,0,2.4282,2.4305,2.4325,2.4356,2.4365,2.4378,2.4392,2.4396,2.4414,2.4422,2.4436,2.4454,2.4475,2.449,2.4511,2.4547,2.4551,2.4561,2.4564,2.4567,2.457,2.4589,2.4593,2.4544,2.4544,2.4544,0,0,2.4294,2.4311,2.4325,2.4357,2.4372,2.4395,2.4385,2.441,2.4427,2.4426,2.4457,2.4467,2.4487,2.452,2.4536,2.453,2.4585,2.457,2.4572,2.4574,2.4591,2.4596,2.46,2.4545,2.4545,2.4545,0,0,2.4329,2.4344,2.437,2.4384,2.4406,2.4414,2.4421,2.4442,2.4449,2.448,2.4479,2.4499,2.4537,2.4551,2.4563,2.46,2.4599,2.4606,2.4623,2.464,2.4644,2.4648,2.4661,2.4665,2.4609,2.461,2.461,0,2.4341,2.4377,2.4384,2.4409,2.4423,2.4422,2.4449,2.4462,2.4489,2.4498,2.4492,2.4538,2.4552,2.4588,2.4596,2.4606,2.4613,2.4604,2.4643,2.4647,2.465,2.4662,2.4667,2.461,2.461,2.461,2.461,0,2.4391,2.4415,2.4434,2.446,2.4476,2.4501,2.4511,2.4526,2.4528,2.4536,2.4567,2.4583,2.4607,2.4615,2.4618,2.4651,2.4647,2.4642,2.463,2.4656,2.4667,2.4672,2.4611,2.4611,2.4611,2.4611,0,0,2.4433,2.4461,2.4468,2.4479,2.4502,2.452,2.4545,2.4568,2.458,2.4598,2.4619,2.465,2.4644,2.4658,2.4662,2.4677,2.4704,2.467,2.467,2.4676,2.4741,2.4745,2.4751,2.4703,2.4704,2.4705,2.4739,0,2.447,2.4514,2.452,2.4559,2.4581,2.458,2.4601,2.4616,2.4624,2.4643,2.4652,2.4673,2.4665,2.4673,2.4688,2.4698,2.4718,2.4695,2.4722,2.4722,2.4717,2.4757,2.4762,2.4794,2.4744,2.4745,2.4745,0,2.4519,2.4538,2.4579,2.4598,2.4607,2.4626,2.4647,2.4665,2.4682,2.4687,2.4701,2.4702,2.4726,2.4712,2.4745,2.473,2.474,2.4746,2.4748,2.4751,2.4736,2.4761,2.4804,2.4809,2.4752,2.4752,2.4751,0,2.4545,2.4581,2.461,2.462,2.4642,2.4655,2.4665,2.4681,2.4694,2.4711,2.472,2.474,2.4751,2.4766,2.4772,2.4762,2.4805,2.4792,2.4809,2.4808,2.4819,2.4818,2.4864,2.4825,2.4825,2.4824,2.4824,0,2.4586,2.4612,2.4622,2.464,2.4668,2.4673,2.47,2.4709,2.4723,2.4741,2.4741,2.4758,2.4765,2.4783,2.4788,2.4814,2.4819,2.4823,2.4824,2.4823,2.4823,2.4831,2.4829,2.4826,2.4825,2.4825,2.4825,0,2.4621,2.4629,2.4661,2.4678,2.4683,2.4703,2.4717,2.4734,2.4741,2.4764,2.477,2.4781,2.4802,2.4809,2.4835,2.4838,2.4868,2.4867,2.4863,2.4863,2.488,2.4878,2.4933,2.494,2.4896,2.4896,2.4896,0,2.4647,2.4666,2.4686,2.4698,2.4708,2.4729,2.4742,2.4747,2.476,2.478,2.4794,2.4814,2.4832,2.4865,2.4875,2.4894,2.4894,2.4911,2.4897,2.4895,2.4894,2.4893,2.4895,2.4915,2.4915,2.4915,2.4916,0,2.4692,2.4695,2.4714,2.4734,2.4749,2.4765,2.4781,2.4791,2.4798,2.4813,2.4834,2.4847,2.4873,2.4893,2.4913,2.4921,2.492,2.492,2.4925,2.4925,2.4922,2.4924,2.4871,2.4919,2.4919,2.4919,2.4918,2.4918,2.4724,2.474,2.4756,2.4777,2.4788,2.4802,2.4818,2.4827,2.4845,2.4866,2.4868,2.4891,2.4905,2.4931,2.494,2.4957,2.4952,2.496,2.4962,2.4964,2.4965,2.4918,2.4961,2.4961,2.4961,2.4961,2.4961,0,2.4769,2.4778,2.4797,2.4818,2.4834,2.483,2.4847,2.486,2.488,2.4894,2.491,2.4934,2.4953,2.4964,2.4983,2.4994,2.4994,2.4999,2.4999,2.5001,2.4968,2.4962,2.4999,2.4999,2.4999,2.4999,2.4999,2.4999,2.4794,2.4822,2.4826,2.4858,2.4868,2.489,2.49,2.4912,2.4923,2.4949,2.4965,2.4972,2.4984,2.5003,2.502,2.5022,2.5029,2.5035,2.5037,2.5007,2.5003,2.4999,2.4994,2.5037,2.5037,2.5068,2.5068,2.5069]}]]